Regional Weather Roundup
Issued by NWS Kansas City/Pleasant Hill, MO

Home | Current Version | Previous Version | Graphics & Text | Print | Product List | Glossary Off
Versions: 1 2 3 4 5 6 7 8 9 10 11 12 13 14 15 16 17 18 19 20 21 22 23 24 25 26 27

000
ASUS43 KEAX 081610
RWREAX

WEATHER ROUNDUP FOR EASTERN KANSAS AND NORTHWEST MISSOURI
NATIONAL WEATHER SERVICE KANSAS CITY/PLEASANT HILL MO
1000 AM CST THU DEC 08 2016

KSZ040-057-103>105-MOZ028-029-037-043-081700-
...KANSAS CITY METROPOLITAN AREA...

CITY           SKY/WX    TMP DP  RH WIND       PRES   REMARKS
K.C. INTL      SUNNY     18   6  59 NW16      30.62R WCI   3
K.C. DOWNTOWN  SUNNY     19   8  62 NW13G20   30.64R WCI   6
LEES SUMMIT    SUNNY     18   8  65 NW14      30.61R WCI   4
OLATHE - IXD   SUNNY     18   8  65 NW16      30.64R WCI   3
OLATHE - OJC   SUNNY     17   7  64 NW15      30.63R WCI   2
LAWRENCE       SUNNY     19   9  65 W13       30.67R WCI   6

$$

MOZ001>008-011>017-020>025-030>033-038>040-044>046-053-054-081700-
...NORTHERN AND CENTRAL MISSOURI...

CITY           SKY/WX    TMP DP  RH WIND       PRES   REMARKS
ST. JOSEPH     SUNNY     18   6  59 NW21G26   30.63R WCI   1
MOSBY          SUNNY     21   9  58 NW10G16   30.63R WCI  10
WARRENSBURG    SUNNY     21  10  63 W13       30.63R WCI   9
WHITEMAN AFB   MOSUNNY   20  10  64 NW14      30.60R WCI   7
CLINTON        SUNNY     21  10  63 NW13      30.64R WCI   9
SEDALIA        SUNNY     21  11  65 NW15      30.60R WCI   8
WARSAW         NOT AVBL
CHILLICOTHE      N/A     19   8  62 NW13G23   30.60R WCI   6
KIRKSVILLE     PTSUNNY   19   9  65 W16G25    30.53R WCI   4

$$

MOZ041-047>049-056>058-063>065-088>090-097-081700-
...EASTERN AND SOUTHERN MISSOURI...

CITY           SKY/WX    TMP DP  RH WIND       PRES   REMARKS
ST. LOUIS INTL MOSUNNY   25  10  53 W16G25    30.51R WCI  12
SPIRIT OF STL  MOSUNNY   25  12  58 W16       30.53R WCI  12
COLUMBIA       SUNNY     21   9  59 W15       30.55R WCI   8
JEFFERSON CITY SUNNY     22  10  60 NW13      30.59R WCI  10
ROLLA          SUNNY     21  11  65 W18       30.52R WCI   6
OSAGE BEACH    SUNNY     23  12  62 W10       30.60  WCI  12
SPRINGFIELD    SUNNY     20  10  65 NW13      30.59R WCI   7
BRANSON        PTSUNNY   23   9  54 NW10      30.58R WCI  12
JOPLIN         SUNNY     21  11  65 NW14      30.67R WCI   8
WEST PLAINS    CLOUDY    25  10  53 NW15      30.55R WCI  13

$$

IAZ060-094-KSZ022-034>040-054-083-096-NEZ052-066-093-081700-
...KANSAS...SOUTHEAST NEBRASKA AND IOWA...

CITY           SKY/WX    TMP DP  RH WIND       PRES   REMARKS
TOPEKA         SUNNY     19   8  62 NW13      30.68R WCI   6
MANHATTAN      SUNNY     19   6  57 NW9G18    30.70R WCI   8
EMPORIA        SUNNY     18   9  68 NW12      30.67R WCI   5
CHANUTE        SUNNY     20  10  65 NW14      30.68R WCI   7
WICHITA        MOSUNNY   21   6  52 N13       30.70R WCI   9
OMAHA          MOSUNNY   16   5  62 NW18G24   30.62R WCI   0
LINCOLN        SUNNY     15   3  59 NW15      30.66R WCI   0
FALLS CITY     SUNNY     17   5  59 NW18      30.64R WCI   1
LAMONI         PTSUNNY   15   7  70 NW17      30.54R WCI  -1
DES MOINES     MOSUNNY   16   6  65 NW18      30.52R WCI   0

$$





USA.gov is the U.S. government's official web portal to all federal, state and local government web resources and services.